Weather History for Sturgeon Bay, WI

Change the Weather History Date:

Saturday, July 7, 2012

  Actual Average Record
Temperature  
Mean Temperature 70 °F -  
Max Temperature 78 °F 79 °F 99 °F (1936)
Min Temperature 62 °F 58 °F 42 °F (1911)
Cooling Degree Days 5    
Growing Degree Days 20 (Base 50)    
Moisture  
Dew Point 61 °F    
Average Humidity 75    
Maximum Humidity 94    
Minimum Humidity 50    
Precipitation  
Precipitation 0.00 in - - ()
Sea Level Pressure  
Sea Level Pressure 30.04 in    
Wind  
Wind Speed 9 mph (NNE)    
Max Wind Speed 16 mph    
Max Gust Speed 24 mph    
Visibility 10 miles    
Events Thunderstorm    
Averages and records for this station are not official NWS values.
T = Trace of Precipitation, MM = Missing Value Source: NWS Daily Summary

Daily Weather History Graph

Daily Weather History Graph

Search for Another Location

Airport:

Trip Planner

Search our weather history database for the weather conditions in past years. The results will help you decide how hot, cold, wet, or windy it might be!

Date:

Astronomy

Jul. 07, 2012 Rise Set
Actual Time 5:11 AM CDT 8:37 PM CDT
Civil Twilight 4:35 AM CDT 9:13 PM CDT
Nautical Twilight 3:47 AM CDT 10:01 PM CDT
Astronomical Twilight 2:46 AM CDT 11:02 PM CDT
Moon 10:41 PM CDT (7/7) 9:49 AM CDT (7/7)
Length of Visible Light 16h 38m
Length of Day
15h 25m
Waning Gibbous, 81% of the Moon is Illuminated
Jul 7
Waning Gibbous
Jul 10
Last Quarter
Jul 18
New
Jul 26
First Quarter
Aug 1
Full

Hourly Weather History & Observations

Time (CDT) Temp. Dew Point Humidity Pressure Visibility Wind Dir Wind Speed Gust Speed Precip Events Conditions
12:15 AM 69.8 °F 60.8 °F 73% 29.94 in 10.0 mi ENE 9.2 mph - N/A   Clear
12:35 AM 68.0 °F 60.8 °F 78% 29.97 in 10.0 mi North 10.4 mph - N/A   Clear
12:55 AM 68.0 °F 60.8 °F 78% 29.96 in 10.0 mi NE 10.4 mph - N/A   Clear
1:15 AM 66.2 °F 60.8 °F 83% 29.97 in 10.0 mi NE 6.9 mph - N/A   Clear
1:35 AM 66.2 °F 60.8 °F 83% 29.98 in 10.0 mi NE 8.1 mph - N/A   Clear
1:55 AM 66.2 °F 59.0 °F 78% 29.99 in 10.0 mi North 8.1 mph - N/A   Clear
2:15 AM 66.2 °F 59.0 °F 78% 29.98 in 10.0 mi NNE 5.8 mph - N/A   Clear
2:35 AM 66.2 °F 59.0 °F 78% 29.97 in 10.0 mi ENE 8.1 mph - N/A   Clear
2:55 AM 66.2 °F 59.0 °F 78% 29.99 in 10.0 mi NE 6.9 mph - N/A   Clear
3:15 AM 64.4 °F 59.0 °F 83% 30.02 in 10.0 mi North 12.7 mph 17.3 mph N/A   Scattered Clouds
3:35 AM 64.4 °F 59.0 °F 83% 29.99 in 10.0 mi NE 16.1 mph 24.2 mph N/A Thunderstorm Mostly Cloudy
3:55 AM 64.4 °F 57.2 °F 77% 29.94 in 10.0 mi East 10.4 mph - N/A   Partly Cloudy
4:15 AM 62.6 °F 57.2 °F 82% 29.94 in 10.0 mi East 16.1 mph 23.0 mph N/A   Partly Cloudy
4:35 AM 62.6 °F 59.0 °F 88% 29.98 in 10.0 mi NNE 11.5 mph - N/A   Clear
4:55 AM 64.4 °F 59.0 °F 83% 29.99 in 10.0 mi NNE 8.1 mph - N/A   Clear
5:15 AM 64.4 °F 59.0 °F 83% 30.00 in 10.0 mi NNE 9.2 mph - N/A   Clear
5:35 AM 62.6 °F 60.8 °F 94% 30.00 in 10.0 mi NNE 10.4 mph - N/A   Scattered Clouds
5:55 AM 64.4 °F 60.8 °F 88% 30.01 in 10.0 mi NNE 5.8 mph - N/A   Scattered Clouds
6:15 AM 64.4 °F 60.8 °F 88% 30.02 in 10.0 mi NNE 8.1 mph - N/A   Scattered Clouds
6:55 AM 64.4 °F 60.8 °F 88% 30.02 in 10.0 mi NNE 9.2 mph - N/A   Mostly Cloudy
7:15 AM 64.4 °F 62.6 °F 94% 30.03 in 10.0 mi NNE 8.1 mph - N/A   Overcast
7:35 AM 64.4 °F 62.6 °F 94% 30.04 in 10.0 mi NE 8.1 mph - N/A   Overcast
7:55 AM 64.4 °F 62.6 °F 94% 30.04 in 10.0 mi NNE 9.2 mph - N/A   Overcast
8:15 AM 64.4 °F 60.8 °F 88% 30.04 in 10.0 mi NNE 8.1 mph - N/A   Overcast
8:35 AM 64.4 °F 60.8 °F 88% 30.05 in 10.0 mi NNE 10.4 mph - N/A   Overcast
8:55 AM 66.2 °F 60.8 °F 83% 30.05 in 10.0 mi NNE 8.1 mph - N/A   Overcast
9:15 AM 66.2 °F 60.8 °F 83% 30.05 in 10.0 mi NNE 6.9 mph - N/A   Overcast
9:35 AM 66.2 °F 62.6 °F 88% 30.06 in 10.0 mi North 11.5 mph - N/A   Overcast
9:55 AM 66.2 °F 62.6 °F 88% 30.05 in 10.0 mi NNE 9.2 mph - N/A   Overcast
10:15 AM 68.0 °F 62.6 °F 83% 30.06 in 10.0 mi North 8.1 mph - N/A   Overcast
10:35 AM 68.0 °F 60.8 °F 78% 30.06 in 10.0 mi North 12.7 mph - N/A   Overcast
10:55 AM 69.8 °F 60.8 °F 73% 30.07 in 10.0 mi North 12.7 mph - N/A   Overcast
11:15 AM 69.8 °F 60.8 °F 73% 30.07 in 10.0 mi North 11.5 mph - N/A   Overcast
11:35 AM 71.6 °F 60.8 °F 69% 30.07 in 10.0 mi North 11.5 mph - N/A   Scattered Clouds
11:55 AM 71.6 °F 60.8 °F 69% 30.07 in 10.0 mi North 13.8 mph - N/A   Clear
12:15 PM 71.6 °F 62.6 °F 73% 30.08 in 10.0 mi North 12.7 mph - N/A   Clear
12:35 PM 71.6 °F 62.6 °F 73% 30.07 in 10.0 mi North 12.7 mph - N/A   Clear
12:55 PM 71.6 °F 62.6 °F 73% 30.08 in 10.0 mi North 12.7 mph - N/A   Clear
1:15 PM 71.6 °F 62.6 °F 73% 30.08 in 10.0 mi North 12.7 mph - N/A   Clear
1:35 PM 73.4 °F 62.6 °F 69% 30.08 in 10.0 mi North 10.4 mph - N/A   Clear
1:55 PM 73.4 °F 62.6 °F 69% 30.07 in 10.0 mi North 11.5 mph - N/A   Clear
2:15 PM 75.2 °F 60.8 °F 61% 30.07 in 10.0 mi NNW 11.5 mph - N/A   Clear
2:55 PM 77.0 °F 57.2 °F 50% 30.07 in 10.0 mi North 10.4 mph - N/A   Clear
3:15 PM 77.0 °F 60.8 °F 57% 30.07 in 10.0 mi North 13.8 mph - N/A   Clear
3:35 PM 78.8 °F 60.8 °F 54% 30.07 in 10.0 mi North 10.4 mph 16.1 mph N/A   Clear
3:55 PM 78.8 °F 60.8 °F 54% 30.06 in 10.0 mi North 9.2 mph 16.1 mph N/A   Clear
4:15 PM 78.8 °F 60.8 °F 54% 30.06 in 10.0 mi North 10.4 mph - N/A   Clear
4:55 PM 78.8 °F 60.8 °F 54% 30.06 in 10.0 mi North 8.1 mph - N/A   Clear
5:15 PM 78.8 °F 60.8 °F 54% 30.06 in 10.0 mi North 8.1 mph - N/A   Clear
5:35 PM 78.8 °F 60.8 °F 54% 30.06 in 10.0 mi NNE 6.9 mph - N/A   Clear
5:55 PM 78.8 °F 60.8 °F 54% 30.05 in 10.0 mi NNE 6.9 mph - N/A   Clear
6:15 PM 78.8 °F 60.8 °F 54% 30.05 in 10.0 mi NNE 4.6 mph - N/A   Clear
6:35 PM 78.8 °F 60.8 °F 54% 30.05 in 10.0 mi NE 5.8 mph - N/A   Clear
6:55 PM 78.8 °F 60.8 °F 54% 30.05 in 10.0 mi NNE 3.5 mph - N/A   Clear
7:15 PM 78.8 °F 62.6 °F 57% 30.06 in 10.0 mi NE 3.5 mph - N/A   Clear
7:35 PM 77.0 °F 60.8 °F 57% 30.07 in 10.0 mi ENE 3.5 mph - N/A   Clear
7:55 PM 75.2 °F 62.6 °F 65% 30.07 in 10.0 mi Calm Calm - N/A   Clear
8:15 PM 73.4 °F 62.6 °F 69% 30.07 in 10.0 mi North 3.5 mph - N/A   Clear
8:35 PM 71.6 °F 62.6 °F 73% 30.06 in 10.0 mi North 4.6 mph - N/A   Clear
8:55 PM 69.8 °F 60.8 °F 73% 30.07 in 10.0 mi North 4.6 mph - N/A   Clear
9:15 PM 69.8 °F 60.8 °F 73% 30.07 in 10.0 mi North 4.6 mph - N/A   Clear
9:35 PM 66.2 °F 60.8 °F 83% 30.07 in 10.0 mi North 4.6 mph - N/A   Clear
9:55 PM 66.2 °F 60.8 °F 83% 30.08 in 10.0 mi Calm Calm - N/A   Clear
10:15 PM 66.2 °F 60.8 °F 83% 30.09 in 10.0 mi Calm Calm - N/A   Clear
10:35 PM 66.2 °F 60.8 °F 83% 30.09 in 10.0 mi Calm Calm - N/A   Clear
10:55 PM 66.2 °F 60.8 °F 83% 30.09 in 10.0 mi Calm Calm - N/A   Clear
11:35 PM 64.4 °F 60.8 °F 88% 30.10 in 10.0 mi Calm Calm - N/A   Clear
11:55 PM 62.6 °F 60.8 °F 94% 30.10 in 10.0 mi Calm Calm - N/A   Clear